RH
82 85 85 84 79 80 80 79 78 78 81 84 88 90 90 90 87 82 81 78 79 79
86 84 78 72 74 75 75 68 73 80 83 86 89 90 89 91 89 84 82 83 81 81
75 69 70 71 69 73 76 77 81 84 87 89 89 90 90 92 90 86 85 81 82 82
69 68 69 72 73 74 75 75 76 79 82 86 88 89 90 91 91 91 91 88 85 83
67 69 71 69 67 70 70 71 72 73 74 76 77 80 86 88 89 91 92 91 91 90
65 67 67 68 69 71 73 73 74 75 76 76 76 78 79 82 85 87 90 91 92 92
65 68 69 70 72 73 74 75 75 77 77 76 78 78 78 80 86 88 87 88 89 90
65 69 70 70 71 73 75 74 77 78 77 79 78 70 80 87 88 89 89 89 88 87
65 68 69 70 72 75 75 76 78 78 80 83 72 70 72 78 91 91 92 90 87 88
66 67 69 71 74 75 76 80 81 82 82 81 82 70 70 72 89 92 92 90 88 81
70 71 72 75 77 80 81 81 82 82 81 82 74 68 70 71 88 92 92 90 88 89
74 76 76 76 77 79 82 82 82 79 80 82 77 69 71 73 90 92 92 90 86 89
76 73 74 75 76 78 83 81 81 76 78 75 80 69 68 69 90 94 91 88 88 79
69 69 71 73 76 77 79 80 79 77 74 76 75 78 69 67 81 92 92 92 89 90
Wind_Speed
5 4 3 2 2 2 1 3 3 4 4 4 4 4 3 2 4 4 5 6 5 3
5 4 4 3 0 1 2 2 3 4 4 4 4 4 3 4 5 4 5 6 5 4
5 3 2 2 1 1 2 2 3 4 4 5 4 4 2 3 4 4 4 4 5 5
3 3 2 1 0 1 2 3 3 4 5 5 5 4 3 3 4 5 5 4 5 6
2 2 2 2 1 1 2 2 3 4 4 4 4 4 4 4 4 4 5 6 5 6
3 2 1 1 1 1 2 3 3 3 3 4 4 5 5 4 5 5 5 5 5 6
1 2 2 1 1 2 2 3 4 4 4 4 5 5 5 4 5 5 4 5 5 5
2 2 2 2 2 2 3 3 3 4 5 5 4 4 5 5 5 5 6 6 5 6
3 3 3 3 2 2 3 4 3 4 5 6 4 9 12 9 5 6 6 6 6 5
3 3 3 2 2 4 4 3 5 5 5 6 6 11 12 12 5 6 6 6 5 6
2 3 3 2 4 4 3 4 4 5 5 6 6 11 13 13 6 6 7 6 6 6
3 3 3 4 4 4 3 3 3 3 6 5 8 11 14 11 6 6 8 6 6 6
4 3 3 4 4 3 2 4 4 6 5 8 7 14 15 12 4 6 6 6 7 13
0 2 3 4 2 3 4 4 6 6 7 7 8 8 15 15 6 5 7 6 7 5
Wind_Direction
194 195 203 199 196 226 255 284 303 315 315 305 300 295 252 228 236 218 230 239 229 236
198 180 190 203 165 303 283 288 328 326 324 321 310 294 254 227 239 218 224 230 232 222
181 171 146 147 244 283 303 317 330 337 335 325 318 313 282 264 260 238 243 231 232 234
154 165 153 155 230 268 300 328 334 331 328 332 329 325 311 283 269 253 264 254 244 254
138 142 159 193 240 310 332 334 328 329 325 319 315 315 310 303 305 288 289 283 278 271
176 173 194 257 310 335 319 314 318 309 301 302 303 304 300 291 294 291 281 278 274 278
210 210 214 230 264 278 288 301 305 296 294 300 302 298 295 297 298 289 277 277 272 273
225 201 207 237 259 277 290 292 295 299 301 299 293 282 297 288 284 283 287 281 271 260
214 213 229 247 268 287 291 291 286 294 293 301 293 302 301 298 287 285 273 279 278 271
221 241 259 267 281 287 288 291 295 298 304 297 293 296 298 299 280 274 264 262 274 290
248 265 278 263 268 275 269 272 279 287 292 298 293 300 302 301 284 273 264 258 259 261
222 233 245 272 279 264 261 283 285 287 302 293 292 303 308 308 290 279 276 267 255 255
197 209 267 282 291 263 264 290 309 302 279 287 283 300 304 305 272 277 277 272 260 269
295 288 273 281 252 289 304 305 301 297 293 284 272 276 293 297 287 266 277 266 268 255